Flag for U.S.A. Weather past 2 weeks in Akron, Ohio, U.S.A.

Now
50 °F

Fog.


Feels Like: 50 °F
Forecast: 52 / 77 °F
Wind: No wind

Location: Akron Fulton International Airport

Current Time: Oct 2, 2014 at 2:26:48 AM

Latest Report: Oct 2, 2014 at 1:54 AM


Visibility: 5 mi

Pressure: 30.05 "Hg

Humidity: 93%

Dew point: 48 °F

Location of AkronLocation

Historic Weather in Akron — Graph

°F

Akron temperature yesterday

Maximum temperature yesterday: 69 °F (at 3:54 PM)
Minimum temperature yesterday: 51 °F (at 1:01 AM)
Average temperature yesterday: 59 °F

Past Weeks' High & Low Weather Summary

 TemperatureHumidityPressure
High79 °F (Sep 28, 2:54 PM)97% (Sep 28, 3:04 AM)30.44 "Hg (Sep 28, 3:04 AM)
Low41 °F (Sep 23, 5:54 AM)35% (Sep 21, 2:54 PM)29.67 "Hg (Sep 21, 1:54 PM)
Average61 °F73%30.12 "Hg
* Reported Sep 17 12:54 AM — Oct 2 12:57 AM, Akron, Weather by CustomWeather, © 2014

Note: Actual official high and low records may vary slightly from our data, if they occured in-between our weather recording intervals... More about our weather records

Advertising

Akron weather history for previous 24 hours

 ConditionsComfort  
Time TempWeatherWind HumidityBarometerVisibility
12:57 AM
Oct 2
50 °FFog.No wind93%30.05 "Hg3 mi
11:57 PM
Oct 1
52 °FFog.No wind93%30.06 "Hg2 mi
10:54 PM53 °FFog.No wind93%30.05 "Hg0 mi
10:01 PM54 °FFog.No wind93%30.05 "Hg3 mi
8:54 PM57 °FFog.No wind90%30.03 "Hg5 mi
7:54 PM61 °FSunny.No wind83%30.02 "Hg7 mi
6:54 PM64 °FSunny.3 mph75%30.01 "Hg8 mi
5:54 PM66 °FPartly sunny.7 mph70%30.01 "Hg8 mi
4:54 PM68 °FPassing clouds.8 mph65%30.01 "Hg10 mi
3:54 PM69 °FScattered clouds.3 mph63%30.01 "Hg10 mi
2:54 PM67 °FPartly sunny.5 mph68%30.01 "Hg10 mi
1:54 PM68 °FPartly sunny.7 mph68%30.03 "Hg10 mi
12:54 PM65 °FOvercast.5 mph73%30.04 "Hg10 mi
11:54 AM64 °FCloudy.7 mph75%30.04 "Hg10 mi
10:54 AM62 °FMostly cloudy.No wind80%30.05 "Hg10 mi
10:04 AM62 °FMostly cloudy.6 mph80%30.04 "Hg10 mi
8:54 AM59 °FMore clouds than sun.No wind87%30.02 "Hg7 mi
7:54 AM57 °FFog.3 mph90%30.01 "Hg6 mi
6:54 AM56 °FMostly cloudy.7 mph90%30.00 "Hg8 mi
5:54 AM56 °FOvercast.No wind90%29.99 "Hg8 mi
4:54 AM55 °FOvercast.No wind90%29.98 "Hg8 mi
3:54 AM55 °FOvercast.No wind90%29.98 "Hg7 mi
2:54 AM54 °FLow clouds.No wind93%29.99 "Hg7 mi
Weather by CustomWeather, © 2014

See weather overviewHow to use our weather pages